Weather History for Montague, CA

Change the Weather History Date:

Tuesday, November 13, 2012

  Actual Average Record
Temperature  
Mean Temperature 44 °F 40 °F  
Max Temperature 55 °F 51 °F 74 °F (1995)
Min Temperature 32 °F 30 °F 12 °F (1985)
Degree Days  
Heating Degree Days 21 25  
Month to date heating degree days 266 289  
Since 1 July heating degree days 621 842  
Cooling Degree Days 0 0  
Month to date cooling degree days 0 0  
Year to date cooling degree days 622 544  
Moisture  
Dew Point 39 °F    
Average Humidity 79    
Maximum Humidity 100    
Minimum Humidity 55    
Precipitation  
Precipitation 0.01 in 0.09 in 0.71 in (1962)
Month to date precipitation 0.12 1.16  
Year to date precipitation 8.61 14.00  
Sea Level Pressure  
Sea Level Pressure 30.25 in    
Wind  
Wind Speed 2 mph (NE)    
Max Wind Speed 8 mph    
Max Gust Speed 10 mph    
Visibility 10 miles    
Events Rain    
T = Trace of Precipitation, MM = Missing Value Source: NWS Daily Summary

Daily Weather History Graph

Daily Weather History Graph

Search for Another Location

Airport:

Trip Planner

Search our weather history database for the weather conditions in past years. The results will help you decide how hot, cold, wet, or windy it might be!

Date:

Astronomy

Nov. 13, 2012 Rise Set
Actual Time 6:57 AM PST 4:50 PM PST
Civil Twilight 6:27 AM PST 5:20 PM PST
Nautical Twilight 5:54 AM PST 5:53 PM PST
Astronomical Twilight 5:21 AM PST 6:26 PM PST
Moon 6:42 AM PST (11/13) 4:47 PM PST (11/13)
Length of Visible Light 10h 52m
Length of Day
9h 52m
Waning Crescent, 0% of the Moon is Illuminated
Nov 13
Waning Crescent
Nov 13
New
Nov 20
First Quarter
Nov 28
Full
Dec 6
Last Quarter

Hourly Weather History & Observations

Time (PST) Temp. Windchill Dew Point Humidity Pressure Visibility Wind Dir Wind Speed Gust Speed Precip Events Conditions
12:53 AM 35.1 °F 31.0 °F 33.1 °F 92% 30.34 in 10.0 mi NE 4.6 mph - N/A   Clear
1:53 AM 33.1 °F 28.7 °F 30.0 °F 89% 30.32 in 10.0 mi ENE 4.6 mph - N/A   Scattered Clouds
2:53 AM 36.0 °F - 35.1 °F 97% 30.30 in 10.0 mi Calm Calm - N/A   Overcast
4:53 AM 37.0 °F - 35.1 °F 93% 30.28 in 10.0 mi Calm Calm - N/A   Mostly Cloudy
5:53 AM 37.9 °F - 35.1 °F 89% 30.28 in 10.0 mi Calm Calm - N/A   Overcast
6:53 AM 39.0 °F - 36.0 °F 89% 30.28 in 10.0 mi Calm Calm - 0.00 in Rain Light Rain
7:53 AM 39.0 °F - 37.0 °F 93% 30.29 in 10.0 mi Calm Calm - 0.01 in Rain Light Rain
8:53 AM 41.0 °F - 39.0 °F 93% 30.30 in 9.0 mi Calm Calm - 0.00 in Rain Light Rain
9:53 AM 45.0 °F - 39.0 °F 80% 30.28 in 10.0 mi Calm Calm - 0.00 in   Clear
10:53 AM 50.0 °F - 39.0 °F 66% 30.27 in 10.0 mi Calm Calm - N/A   Clear
11:53 AM 53.1 °F - 39.9 °F 61% 30.24 in 10.0 mi North 3.5 mph - N/A   Clear
12:53 PM 55.0 °F - 39.9 °F 57% 30.22 in 10.0 mi Calm Calm - N/A   Partly Cloudy
1:53 PM 54.0 °F - 39.0 °F 57% 30.20 in 10.0 mi Calm Calm - N/A   Mostly Cloudy
2:53 PM 53.1 °F - 39.0 °F 59% 30.18 in 10.0 mi NE 5.8 mph - N/A   Overcast
3:53 PM 53.1 °F - 41.0 °F 64% 30.18 in 10.0 mi Calm Calm - N/A   Overcast
4:53 PM 51.1 °F - 43.0 °F 74% 30.19 in 10.0 mi NNW 3.5 mph - 0.00 in Rain Light Rain
5:53 PM 48.9 °F - 42.1 °F 77% 30.20 in 10.0 mi Calm Calm - 0.00 in   Overcast
6:53 PM 48.0 °F - 42.1 °F 80% 30.21 in 10.0 mi North 3.5 mph - 0.00 in Rain Light Rain
7:53 PM 48.0 °F - 41.0 °F 77% 30.22 in 10.0 mi NNE 6.9 mph - 0.00 in   Overcast
8:53 PM 46.9 °F - 41.0 °F 80% 30.22 in 10.0 mi NNE 5.8 mph - 0.00 in   Overcast
9:53 PM 46.9 °F - 41.0 °F 80% 30.22 in 10.0 mi NE 4.6 mph - N/A   Overcast
10:53 PM 46.9 °F - 41.0 °F 80% 30.22 in 10.0 mi Calm Calm - N/A   Overcast
11:53 PM 46.0 °F 44.8 °F 39.9 °F 79% 30.23 in 10.0 mi SE 3.5 mph - N/A   Overcast